Weather History for Tacoma Narrows, WA

Change the Weather History Date:

Saturday, August 24, 2013

  Actual Average Record
Temperature  
Mean Temperature 66 °F -  
Max Temperature 73 °F 72 °F 84 °F (1996)
Min Temperature 60 °F 55 °F 48 °F (2003)
Cooling Degree Days 2    
Growing Degree Days 16 (Base 50)    
Moisture  
Dew Point 53 °F    
Average Humidity 69    
Maximum Humidity 86    
Minimum Humidity 42    
Precipitation  
Precipitation 0.00 in - - ()
Sea Level Pressure  
Sea Level Pressure 29.91 in    
Wind  
Wind Speed 5 mph (SSW)    
Max Wind Speed 8 mph    
Max Gust Speed -    
Visibility 10 miles    
Events      
Averages and records for this station are not official NWS values.
T = Trace of Precipitation, MM = Missing Value Source: NWS Daily Summary

Daily Weather History Graph

Daily Weather History Graph

Search for Another Location

Airport:

Trip Planner

Search our weather history database for the weather conditions in past years. The results will help you decide how hot, cold, wet, or windy it might be!

Date:

Astronomy

Aug. 24, 2013 Rise Set
Actual Time 6:19 AM PDT 8:04 PM PDT
Civil Twilight 5:46 AM PDT 8:37 PM PDT
Nautical Twilight 5:06 AM PDT 9:16 PM PDT
Astronomical Twilight 4:23 AM PDT 10:00 PM PDT
Moon 9:39 PM PDT (8/24) 10:45 AM PDT (8/24)
Length of Visible Light 14h 50m
Length of Day
13h 45m
Waning Gibbous, 83% of the Moon is Illuminated
Aug 24
Waning Gibbous
Aug 28
Last Quarter
Sep 5
New
Sep 12
First Quarter
Sep 19
Full

Hourly Weather History & Observations

Time (PDT) Temp. Dew Point Humidity Pressure Visibility Wind Dir Wind Speed Gust Speed Precip Events Conditions
12:53 AM 61.0 °F 55.0 °F 81% 29.90 in 10.0 mi SW 3.5 mph - N/A   Overcast
1:53 AM 61.0 °F 55.0 °F 81% 29.91 in 10.0 mi SSE 4.6 mph - N/A   Overcast
2:53 AM 61.0 °F 55.0 °F 81% 29.91 in 10.0 mi SSW 5.8 mph - N/A   Overcast
3:27 AM 60.8 °F 55.4 °F 82% 29.92 in 10.0 mi South 4.6 mph - N/A   Overcast
3:53 AM 61.0 °F 55.0 °F 81% 29.91 in 10.0 mi SSW 6.9 mph - N/A   Overcast
4:53 AM 60.1 °F 55.0 °F 83% 29.90 in 10.0 mi SSW 8.1 mph - N/A   Overcast
5:07 AM 60.8 °F 55.4 °F 82% 29.91 in 10.0 mi SSW 5.8 mph - N/A   Overcast
5:15 AM 60.8 °F 55.4 °F 82% 29.91 in 10.0 mi SSW 4.6 mph - N/A   Overcast
5:51 AM 60.8 °F 55.4 °F 82% 29.90 in 10.0 mi South 4.6 mph - N/A   Overcast
5:53 AM 60.1 °F 55.0 °F 83% 29.90 in 10.0 mi South 5.8 mph - N/A   Overcast
6:53 AM 60.1 °F 55.9 °F 86% 29.91 in 10.0 mi South 4.6 mph - N/A   Overcast
7:18 AM 60.8 °F 55.4 °F 82% 29.92 in 10.0 mi South 4.6 mph - N/A   Overcast
7:42 AM 60.8 °F 55.4 °F 82% 29.92 in 10.0 mi South 4.6 mph - N/A   Overcast
7:53 AM 60.1 °F 55.9 °F 86% 29.92 in 10.0 mi South 4.6 mph - N/A   Overcast
8:00 AM 60.8 °F 55.4 °F 82% 29.92 in 10.0 mi SSW 4.6 mph - N/A   Overcast
8:33 AM 60.8 °F 55.4 °F 82% 29.92 in 10.0 mi WSW 5.8 mph - N/A   Overcast
8:53 AM 62.1 °F 55.0 °F 78% 29.92 in 10.0 mi South 5.8 mph - N/A   Overcast
9:53 AM 63.0 °F 55.0 °F 75% 29.92 in 10.0 mi WSW 4.6 mph - N/A   Overcast
10:53 AM 66.9 °F 54.0 °F 63% 29.92 in 10.0 mi SSW 4.6 mph - N/A   Overcast
11:53 AM 68.0 °F 52.0 °F 56% 29.91 in 10.0 mi West 3.5 mph - N/A   Mostly Cloudy
12:53 PM 70.0 °F 53.1 °F 55% 29.90 in 10.0 mi Calm Calm - N/A   Overcast
1:53 PM 72.0 °F 48.9 °F 44% 29.90 in 10.0 mi Variable 4.6 mph - N/A   Mostly Cloudy
2:53 PM 71.1 °F 48.0 °F 44% 29.89 in 10.0 mi SSE 6.9 mph - N/A   Mostly Cloudy
3:53 PM 73.0 °F 48.9 °F 42% 29.88 in 10.0 mi South 3.5 mph - N/A   Mostly Cloudy
4:53 PM 71.1 °F 50.0 °F 47% 29.88 in 10.0 mi SSE 4.6 mph - N/A   Mostly Cloudy
5:53 PM 72.0 °F 50.0 °F 46% 29.87 in 10.0 mi WSW 4.6 mph - N/A   Overcast
6:53 PM 71.1 °F 50.0 °F 47% 29.86 in 10.0 mi SSW 5.8 mph - N/A   Mostly Cloudy
7:53 PM 69.1 °F 50.0 °F 51% 29.87 in 10.0 mi SW 4.6 mph - N/A   Partly Cloudy
8:53 PM 66.9 °F 50.0 °F 54% 29.89 in 10.0 mi Calm Calm - N/A   Scattered Clouds
9:53 PM 64.9 °F 51.1 °F 61% 29.91 in 10.0 mi West 3.5 mph - N/A   Scattered Clouds
10:53 PM 63.0 °F 52.0 °F 67% 29.93 in 10.0 mi Calm Calm - N/A   Partly Cloudy
11:53 PM 62.1 °F 51.1 °F 67% 29.94 in 10.0 mi NNE 3.5 mph - N/A   Overcast